Time,TemperatureF,DewpointF,PressureIn,WindDirection,WindDirectionDegrees,WindSpeedMPH,WindSpeedGustMPH,Humidity,HourlyPrecipIn,Conditions,Clouds,dailyrainin,SoftwareType,DateUTC
2013-04-16 00:00:00,49.0,40.0,30.38,SSE,163,1.0,4.0,71,0.00,,CLR,0.00,VWS V14.00,2013-04-16 04:00:00,
2013-04-16 00:01:00,49.0,40.0,30.38,SSE,163,1.0,4.0,71,0.00,,OVC080,0.00,VWS V14.00,2013-04-16 04:01:00,
2013-04-16 00:02:00,48.9,39.9,30.37,ESE,110,1.0,3.0,71,0.00,,OVC080,0.00,VWS V14.00,2013-04-16 04:02:00,
2013-04-16 00:05:00,48.9,39.9,30.37,East,100,0.0,3.0,71,0.00,,OVC080,0.00,VWS V14.00,2013-04-16 04:05:00,
2013-04-16 00:10:00,48.8,40.2,30.37,SE,133,0.0,3.0,72,0.00,,OVC080,0.00,VWS V14.00,2013-04-16 04:10:00,
2013-04-16 00:15:00,48.7,40.1,30.37,SE,131,1.0,3.0,72,0.00,,OVC080,0.00,VWS V14.00,2013-04-16 04:15:00,
2013-04-16 00:20:00,48.6,40.3,30.37,SE,135,2.0,5.0,73,0.00,,OVC080,0.00,VWS V14.00,2013-04-16 04:20:00,
2013-04-16 00:25:00,48.5,40.2,30.38,ESE,111,2.0,5.0,73,0.00,,OVC080,0.00,VWS V14.00,2013-04-16 04:25:00,
2013-04-16 00:30:00,48.4,40.5,30.37,ESE,111,1.0,2.0,74,0.00,,OVC080,0.00,VWS V14.00,2013-04-16 04:30:00,
2013-04-16 00:35:00,48.3,40.4,30.37,ESE,114,2.0,2.0,74,0.00,,OVC080,0.00,VWS V14.00,2013-04-16 04:35:00,
2013-04-16 00:41:00,48.3,40.8,30.37,ESE,113,3.0,3.0,75,0.00,,OVC080,0.00,VWS V14.00,2013-04-16 04:41:00,
2013-04-16 00:46:00,48.2,40.7,30.37,East,101,0.0,3.0,75,0.00,,OVC080,0.00,VWS V14.00,2013-04-16 04:46:00,
2013-04-16 00:52:00,48.1,40.9,30.37,ESE,104,0.0,3.0,76,0.00,,OVC080,0.00,VWS V14.00,2013-04-16 04:52:00,
2013-04-16 00:57:00,47.9,40.7,30.37,ESE,104,0.0,3.0,76,0.00,,OVC080,0.00,VWS V14.00,2013-04-16 04:57:00,
2013-04-16 01:00:00,47.9,40.7,30.37,ESE,104,0.0,3.0,76,0.00,,CLR,0.00,VWS V14.00,2013-04-16 05:00:00,
2013-04-16 01:02:00,47.8,40.6,30.37,East,97,0.0,2.0,76,0.00,,OVC100,0.00,VWS V14.00,2013-04-16 05:02:00,
2013-04-16 01:07:00,47.7,40.8,30.37,ENE,67,1.0,2.0,77,0.00,,OVC100,0.00,VWS V14.00,2013-04-16 05:07:00,
2013-04-16 01:12:00,47.6,40.8,30.37,ENE,66,0.0,2.0,77,0.00,,OVC100,0.00,VWS V14.00,2013-04-16 05:12:00,
2013-04-16 01:17:00,47.5,41.0,30.36,ESE,108,2.0,3.0,78,0.00,,OVC100,0.00,VWS V14.00,2013-04-16 05:17:00,
2013-04-16 01:22:00,47.4,40.9,30.37,ESE,108,1.0,3.0,78,0.00,,OVC100,0.00,VWS V14.00,2013-04-16 05:22:00,
2013-04-16 01:27:00,47.4,41.2,30.37,East,91,1.0,3.0,79,0.00,,OVC100,0.00,VWS V14.00,2013-04-16 05:27:00,
2013-04-16 01:30:00,47.4,41.2,30.37,North,1,1.0,3.0,79,0.00,,CLR,0.00,VWS V14.00,2013-04-16 05:30:00,
2013-04-16 01:32:00,47.3,41.1,30.37,SE,132,1.0,2.0,79,0.00,,OVC100,0.00,VWS V14.00,2013-04-16 05:32:00,
2013-04-16 01:38:00,47.3,41.1,30.37,ESE,107,0.0,2.0,79,0.00,,OVC100,0.00,VWS V14.00,2013-04-16 05:38:00,
2013-04-16 01:43:00,47.2,41.4,30.36,ESE,107,0.0,2.0,80,0.00,,OVC100,0.00,VWS V14.00,2013-04-16 05:43:00,
2013-04-16 01:48:00,47.2,41.4,30.36,ENE,67,1.0,2.0,80,0.00,,OVC100,0.00,VWS V14.00,2013-04-16 05:48:00,
2013-04-16 01:53:00,47.1,41.3,30.36,NE,37,0.0,3.0,80,0.00,,OVC100,0.00,VWS V14.00,2013-04-16 05:53:00,
2013-04-16 01:58:00,47.1,41.3,30.36,ENE,77,0.0,3.0,80,0.00,,OVC100,0.00,VWS V14.00,2013-04-16 05:58:00,
2013-04-16 02:00:00,47.1,41.3,30.36,ENE,78,0.0,3.0,80,0.00,,CLR,0.00,VWS V14.00,2013-04-16 06:00:00,
2013-04-16 02:03:00,47.0,41.2,30.36,ESE,105,1.0,3.0,80,0.00,,OVC100,0.00,VWS V14.00,2013-04-16 06:03:00,
2013-04-16 02:08:00,47.0,41.5,30.36,East,100,1.0,3.0,81,0.00,,OVC100,0.00,VWS V14.00,2013-04-16 06:08:00,
2013-04-16 02:13:00,47.0,41.5,30.36,East,100,0.0,3.0,81,0.00,,OVC100,0.00,VWS V14.00,2013-04-16 06:13:00,
2013-04-16 02:18:00,47.0,41.5,30.36,East,101,0.0,3.0,81,0.00,,OVC100,0.00,VWS V14.00,2013-04-16 06:18:00,
2013-04-16 02:23:00,46.9,41.4,30.36,East,98,1.0,3.0,81,0.00,,OVC100,0.00,VWS V14.00,2013-04-16 06:23:00,
2013-04-16 02:28:00,46.9,41.4,30.35,East,81,1.0,3.0,81,0.00,,OVC100,0.00,VWS V14.00,2013-04-16 06:28:00,
2013-04-16 02:30:00,46.9,41.4,30.36,East,80,0.0,3.0,81,0.00,,CLR,0.00,VWS V14.00,2013-04-16 06:30:00,
2013-04-16 02:33:00,46.9,41.7,30.35,ESE,106,0.0,1.0,82,0.00,,OVC100,0.00,VWS V14.00,2013-04-16 06:33:00,
2013-04-16 02:39:00,46.9,41.7,30.35,ESE,105,0.0,1.0,82,0.00,,OVC100,0.00,VWS V14.00,2013-04-16 06:39:00,
2013-04-16 02:44:00,46.9,41.7,30.35,East,101,0.0,2.0,82,0.00,,OVC100,0.00,VWS V14.00,2013-04-16 06:44:00,
2013-04-16 02:49:00,46.8,41.6,30.35,East,93,0.0,2.0,82,0.00,,OVC100,0.00,VWS V14.00,2013-04-16 06:49:00,
2013-04-16 02:54:00,46.8,41.6,30.35,ENE,68,0.0,2.0,82,0.00,,OVC100,0.00,VWS V14.00,2013-04-16 06:54:00,
2013-04-16 02:59:00,46.7,41.5,30.35,ENE,66,0.0,2.0,82,0.00,,OVC100,0.00,VWS V14.00,2013-04-16 06:59:00,
2013-04-16 03:00:00,46.7,41.5,30.35,ENE,66,0.0,2.0,82,0.00,,CLR,0.00,VWS V14.00,2013-04-16 07:00:00,
2013-04-16 03:04:00,46.6,41.7,30.35,NE,56,1.0,1.0,83,0.00,,OVC110,0.00,VWS V14.00,2013-04-16 07:04:00,
2013-04-16 03:09:00,46.5,41.6,30.35,NE,34,0.0,2.0,83,0.00,,OVC110,0.00,VWS V14.00,2013-04-16 07:09:00,
2013-04-16 03:14:00,46.4,41.5,30.35,NE,34,1.0,2.0,83,0.00,,OVC110,0.00,VWS V14.00,2013-04-16 07:14:00,
2013-04-16 03:19:00,46.3,41.7,30.35,NE,34,0.0,2.0,84,0.00,,OVC110,0.00,VWS V14.00,2013-04-16 07:19:00,
2013-04-16 03:24:00,46.3,41.7,30.35,NNE,15,0.0,2.0,84,0.00,,OVC110,0.00,VWS V14.00,2013-04-16 07:24:00,
2013-04-16 03:29:00,46.3,41.7,30.35,NNE,15,0.0,2.0,84,0.00,,OVC110,0.00,VWS V14.00,2013-04-16 07:29:00,
2013-04-16 03:30:00,46.3,41.7,30.35,NNE,14,0.0,2.0,84,0.00,,CLR,0.00,VWS V14.00,2013-04-16 07:30:00,
2013-04-16 03:34:00,46.3,41.7,30.35,NNE,15,0.0,1.0,84,0.00,,OVC110,0.00,VWS V14.00,2013-04-16 07:34:00,
2013-04-16 03:40:00,46.3,41.7,30.35,NNE,15,1.0,1.0,84,0.00,,OVC110,0.00,VWS V14.00,2013-04-16 07:40:00,
2013-04-16 03:45:00,46.4,41.8,30.35,NNE,15,0.0,1.0,84,0.00,,OVC110,0.00,VWS V14.00,2013-04-16 07:45:00,
2013-04-16 03:50:00,46.3,41.7,30.35,NNE,15,0.0,1.0,84,0.00,,OVC110,0.00,VWS V14.00,2013-04-16 07:50:00,
2013-04-16 03:55:00,46.3,42.0,30.34,NNE,15,0.0,1.0,85,0.00,,OVC110,0.00,VWS V14.00,2013-04-16 07:55:00,
2013-04-16 04:00:00,46.3,42.0,30.35,NNE,14,1.0,1.0,85,0.00,,OVC110,0.00,VWS V14.00,2013-04-16 08:00:00,
2013-04-16 04:05:00,46.2,42.0,30.35,NNE,14,1.0,2.0,85,0.00,,OVC100,0.00,VWS V14.00,2013-04-16 08:05:00,
2013-04-16 04:10:00,46.2,42.0,30.35,NNE,14,0.0,2.0,85,0.00,,OVC100,0.00,VWS V14.00,2013-04-16 08:10:00,
2013-04-16 04:15:00,46.2,42.0,30.35,NNE,15,0.0,2.0,85,0.00,,OVC100,0.00,VWS V14.00,2013-04-16 08:15:00,
2013-04-16 04:20:00,46.2,42.2,30.35,NNW,340,1.0,2.0,86,0.00,,OVC100,0.00,VWS V14.00,2013-04-16 08:20:00,
2013-04-16 04:25:00,46.2,42.2,30.35,NNW,340,0.0,2.0,86,0.00,,OVC100,0.00,VWS V14.00,2013-04-16 08:25:00,
2013-04-16 04:30:00,46.2,42.2,30.35,NNW,340,0.0,2.0,86,0.00,,CLR,0.00,VWS V14.00,2013-04-16 08:30:00,
2013-04-16 04:31:00,46.2,42.2,30.35,NNW,340,0.0,0.0,86,0.00,,OVC100,0.00,VWS V14.00,2013-04-16 08:31:00,
2013-04-16 04:36:00,46.2,42.2,30.35,NNE,13,0.0,2.0,86,0.00,,OVC100,0.00,VWS V14.00,2013-04-16 08:36:00,
2013-04-16 04:41:00,46.2,42.2,30.35,NNE,13,0.0,2.0,86,0.00,,OVC100,0.00,VWS V14.00,2013-04-16 08:41:00,
2013-04-16 04:46:00,46.3,42.3,30.35,NNE,13,0.0,2.0,86,0.00,,OVC100,0.00,VWS V14.00,2013-04-16 08:46:00,
2013-04-16 04:52:00,46.2,42.2,30.35,NNE,13,0.0,2.0,86,0.00,,OVC100,0.00,VWS V14.00,2013-04-16 08:52:00,
2013-04-16 04:57:00,46.3,42.3,30.35,North,1,0.0,2.0,86,0.00,,OVC100,0.00,VWS V14.00,2013-04-16 08:57:00,
2013-04-16 05:00:00,46.2,42.2,30.35,North,355,0.0,2.0,86,0.00,,CLR,0.00,VWS V14.00,2013-04-16 09:00:00,
2013-04-16 05:02:00,46.3,42.3,30.35,North,355,1.0,1.0,86,0.00,,OVC100,0.00,VWS V14.00,2013-04-16 09:02:00,
2013-04-16 05:07:00,46.3,42.3,30.35,North,359,0.0,2.0,86,0.00,,OVC100,0.00,VWS V14.00,2013-04-16 09:07:00,
2013-04-16 05:12:00,46.3,42.3,30.35,North,359,1.0,2.0,86,0.00,,OVC100,0.00,VWS V14.00,2013-04-16 09:12:00,
2013-04-16 05:17:00,46.2,42.5,30.35,North,359,0.0,2.0,87,0.00,,OVC100,0.00,VWS V14.00,2013-04-16 09:17:00,
2013-04-16 05:22:00,46.2,42.5,30.34,North,359,0.0,2.0,87,0.00,,OVC100,0.00,VWS V14.00,2013-04-16 09:22:00,
2013-04-16 05:27:00,46.2,42.5,30.35,North,360,1.0,2.0,87,0.00,,OVC100,0.00,VWS V14.00,2013-04-16 09:27:00,
2013-04-16 05:30:00,46.2,42.5,30.35,North,11,2.0,3.0,87,0.00,,CLR,0.00,VWS V14.00,2013-04-16 09:30:00,
2013-04-16 05:32:00,46.2,42.5,30.35,North,11,0.0,2.0,87,0.00,,OVC100,0.00,VWS V14.00,2013-04-16 09:32:00,
2013-04-16 05:37:00,46.2,42.5,30.34,NNE,15,1.0,2.0,87,0.00,,OVC100,0.00,VWS V14.00,2013-04-16 09:37:00,
2013-04-16 05:42:00,46.2,42.5,30.35,NNE,16,0.0,2.0,87,0.00,,OVC100,0.00,VWS V14.00,2013-04-16 09:42:00,
2013-04-16 05:47:00,46.2,42.5,30.35,NNE,20,0.0,2.0,87,0.00,,OVC100,0.00,VWS V14.00,2013-04-16 09:47:00,
2013-04-16 05:53:00,46.1,42.5,30.35,NNE,20,0.0,2.0,87,0.00,,OVC100,0.00,VWS V14.00,2013-04-16 09:53:00,
2013-04-16 05:58:00,46.1,42.5,30.35,NNE,20,0.0,2.0,87,0.00,,OVC100,0.00,VWS V14.00,2013-04-16 09:58:00,
2013-04-16 06:00:00,46.0,42.3,30.35,NNE,20,0.0,2.0,87,0.00,,CLR,0.00,VWS V14.00,2013-04-16 10:00:00,
2013-04-16 06:03:00,45.9,42.3,30.35,NNE,20,0.0,1.0,87,0.00,,OVC100,0.00,VWS V14.00,2013-04-16 10:03:00,
2013-04-16 06:08:00,45.9,42.3,30.35,NNE,20,0.0,2.0,87,0.00,,OVC100,0.00,VWS V14.00,2013-04-16 10:08:00,
2013-04-16 06:13:00,45.8,42.2,30.35,NNE,20,1.0,2.0,87,0.00,,OVC100,0.00,VWS V14.00,2013-04-16 10:13:00,
2013-04-16 06:18:00,45.7,42.4,30.35,NNE,20,0.0,2.0,88,0.00,,OVC100,0.00,VWS V14.00,2013-04-16 10:18:00,
2013-04-16 06:23:00,45.7,42.4,30.35,NNE,20,1.0,2.0,88,0.00,,OVC100,0.00,VWS V14.00,2013-04-16 10:23:00,
2013-04-16 06:28:00,45.6,42.3,30.35,NNE,20,0.0,2.0,88,0.00,,OVC100,0.00,VWS V14.00,2013-04-16 10:28:00,
2013-04-16 06:30:00,45.6,42.3,30.35,NNE,20,0.0,2.0,88,0.00,,CLR,0.00,VWS V14.00,2013-04-16 10:30:00,
2013-04-16 06:33:00,45.6,42.3,30.35,NNE,20,1.0,1.0,88,0.00,,OVC100,0.00,VWS V14.00,2013-04-16 10:33:00,
2013-04-16 06:38:00,45.4,42.1,30.35,NNE,20,0.0,1.0,88,0.00,,OVC100,0.00,VWS V14.00,2013-04-16 10:38:00,
2013-04-16 06:43:00,45.3,42.0,30.35,NNE,20,0.0,1.0,88,0.00,,OVC100,0.00,VWS V14.00,2013-04-16 10:43:00,
2013-04-16 06:48:00,45.1,41.8,30.35,NNE,20,0.0,2.0,88,0.00,,OVC100,0.00,VWS V14.00,2013-04-16 10:48:00,
2013-04-16 06:54:00,45.1,42.1,30.35,NNE,20,0.0,2.0,89,0.00,,OVC100,0.00,VWS V14.00,2013-04-16 10:54:00,
2013-04-16 06:59:00,45.2,42.2,30.36,NNE,20,0.0,2.0,89,0.00,,OVC100,0.00,VWS V14.00,2013-04-16 10:59:00,
2013-04-16 07:00:00,45.2,42.2,30.35,NNE,20,0.0,2.0,89,0.00,,CLR,0.00,VWS V14.00,2013-04-16 11:00:00,
2013-04-16 07:04:00,45.3,42.3,30.35,NNE,20,0.0,1.0,89,0.00,,CLR,0.00,VWS V14.00,2013-04-16 11:04:00,
2013-04-16 07:09:00,45.7,42.7,30.36,NNE,20,0.0,1.0,89,0.00,,CLR,0.00,VWS V14.00,2013-04-16 11:09:00,
2013-04-16 07:14:00,46.1,43.0,30.36,NNE,13,0.0,2.0,89,0.00,,CLR,0.00,VWS V14.00,2013-04-16 11:14:00,
2013-04-16 07:19:00,46.5,43.1,30.36,NNE,13,0.0,2.0,88,0.00,,CLR,0.00,VWS V14.00,2013-04-16 11:19:00,
2013-04-16 07:24:00,46.8,43.1,30.36,North,360,0.0,2.0,87,0.00,,CLR,0.00,VWS V14.00,2013-04-16 11:24:00,
2013-04-16 07:29:00,47.3,43.6,30.36,ENE,60,1.0,2.0,87,0.00,,CLR,0.00,VWS V14.00,2013-04-16 11:29:00,
2013-04-16 07:30:00,47.4,43.7,30.36,ENE,60,1.0,2.0,87,0.00,,CLR,0.00,VWS V14.00,2013-04-16 11:30:00,
2013-04-16 07:34:00,48.3,44.0,30.36,NE,45,0.0,3.0,85,0.00,,CLR,0.00,VWS V14.00,2013-04-16 11:34:00,
2013-04-16 07:39:00,49.3,45.0,30.36,NNE,15,0.0,3.0,85,0.00,,CLR,0.00,VWS V14.00,2013-04-16 11:39:00,
2013-04-16 07:44:00,50.4,44.8,30.36,ENE,59,0.0,3.0,81,0.00,,CLR,0.00,VWS V14.00,2013-04-16 11:44:00,
2013-04-16 07:49:00,50.6,45.0,30.36,ENE,77,0.0,3.0,81,0.00,,CLR,0.00,VWS V14.00,2013-04-16 11:49:00,
2013-04-16 07:55:00,51.6,45.6,30.36,East,94,3.0,4.0,80,0.00,,CLR,0.00,VWS V14.00,2013-04-16 11:55:00,
2013-04-16 08:00:00,51.4,45.1,30.36,ENE,58,0.0,0.0,79,0.00,,CLR,0.00,VWS V14.00,2013-04-16 12:00:00,
2013-04-16 08:05:00,52.1,45.8,30.35,ENE,62,0.0,3.0,79,0.00,,CLR,0.00,VWS V14.00,2013-04-16 12:05:00,
2013-04-16 08:10:00,52.2,45.6,30.36,NNE,14,1.0,4.0,78,0.00,,CLR,0.00,VWS V14.00,2013-04-16 12:10:00,
2013-04-16 08:15:00,51.6,45.3,30.36,SE,133,3.0,4.0,79,0.00,,CLR,0.00,VWS V14.00,2013-04-16 12:15:00,
2013-04-16 08:20:00,51.8,45.8,30.36,SSW,203,0.0,4.0,80,0.00,,CLR,0.00,VWS V14.00,2013-04-16 12:20:00,
2013-04-16 08:25:00,52.0,45.7,30.35,SSW,205,1.0,4.0,79,0.00,,CLR,0.00,VWS V14.00,2013-04-16 12:25:00,
2013-04-16 08:30:00,52.4,46.1,30.35,SSW,195,0.0,0.0,79,0.00,,CLR,0.00,VWS V14.00,2013-04-16 12:30:00,
2013-04-16 08:35:00,53.1,46.8,30.35,SSW,196,0.0,0.0,79,0.00,,CLR,0.00,VWS V14.00,2013-04-16 12:35:00,
2013-04-16 08:40:00,53.2,46.5,30.35,West,269,1.0,1.0,78,0.00,,CLR,0.00,VWS V14.00,2013-04-16 12:40:00,
2013-04-16 08:45:00,53.4,46.7,30.35,West,269,0.0,1.0,78,0.00,,CLR,0.00,VWS V14.00,2013-04-16 12:45:00,
2013-04-16 08:50:00,53.4,46.4,30.35,North,354,2.0,2.0,77,0.00,,CLR,0.00,VWS V14.00,2013-04-16 12:50:00,
2013-04-16 08:55:00,53.3,46.3,30.35,NNW,346,1.0,2.0,77,0.00,,CLR,0.00,VWS V14.00,2013-04-16 12:55:00,
2013-04-16 09:00:00,53.8,47.1,30.35,NNW,346,0.0,1.0,78,0.00,,CLR,0.00,VWS V14.00,2013-04-16 13:00:00,
2013-04-16 09:06:00,54.3,47.6,30.35,SE,134,2.0,3.0,78,0.00,,CLR,0.00,VWS V14.00,2013-04-16 13:06:00,
2013-04-16 09:11:00,54.9,48.2,30.35,SE,136,1.0,3.0,78,0.00,,CLR,0.00,VWS V14.00,2013-04-16 13:11:00,
2013-04-16 09:16:00,55.6,48.5,30.36,SW,236,1.0,3.0,77,0.00,,CLR,0.00,VWS V14.00,2013-04-16 13:16:00,
2013-04-16 09:22:00,56.2,48.4,30.36,SE,132,2.0,3.0,75,0.00,,CLR,0.00,VWS V14.00,2013-04-16 13:22:00,
2013-04-16 09:27:00,56.9,48.7,30.36,SW,221,4.0,4.0,74,0.00,,CLR,0.00,VWS V14.00,2013-04-16 13:27:00,
2013-04-16 09:30:00,57.1,48.9,30.36,South,174,2.0,4.0,74,0.00,,CLR,0.00,VWS V14.00,2013-04-16 13:30:00,
2013-04-16 09:32:00,57.3,49.1,30.36,WSW,250,2.0,7.0,74,0.00,,CLR,0.00,VWS V14.00,2013-04-16 13:32:00,
2013-04-16 09:37:00,58.2,50.0,30.35,SW,218,3.0,7.0,74,0.00,,CLR,0.00,VWS V14.00,2013-04-16 13:37:00,
2013-04-16 09:42:00,59.0,50.0,30.35,SSE,159,2.0,7.0,72,0.00,,CLR,0.00,VWS V14.00,2013-04-16 13:42:00,
2013-04-16 09:47:00,59.6,49.0,30.35,SSE,167,2.0,8.0,68,0.00,,CLR,0.00,VWS V14.00,2013-04-16 13:47:00,
2013-04-16 09:52:00,60.0,50.6,30.35,SSE,158,4.0,8.0,71,0.00,,CLR,0.00,VWS V14.00,2013-04-16 13:52:00,
2013-04-16 09:57:00,60.3,49.7,30.34,South,179,4.0,8.0,68,0.00,,CLR,0.00,VWS V14.00,2013-04-16 13:57:00,
2013-04-16 10:00:00,60.5,49.5,30.34,South,170,2.0,8.0,67,0.00,,CLR,0.00,VWS V14.00,2013-04-16 14:00:00,
2013-04-16 10:02:00,60.8,49.8,30.35,South,181,4.0,6.0,67,0.00,,OVC032,0.00,VWS V14.00,2013-04-16 14:02:00,
2013-04-16 10:08:00,60.9,49.5,30.34,SSW,210,2.0,6.0,66,0.00,,OVC032,0.00,VWS V14.00,2013-04-16 14:08:00,
2013-04-16 10:13:00,61.4,50.0,30.34,SSE,165,4.0,6.0,66,0.00,,OVC032,0.00,VWS V14.00,2013-04-16 14:13:00,
2013-04-16 10:18:00,61.3,49.5,30.34,SSW,204,5.0,7.0,65,0.00,,OVC032,0.00,VWS V14.00,2013-04-16 14:18:00,
2013-04-16 10:23:00,61.8,49.9,30.34,SSE,162,4.0,7.0,65,0.00,,OVC032,0.00,VWS V14.00,2013-04-16 14:23:00,
2013-04-16 10:28:00,62.0,49.7,30.34,SE,135,5.0,9.0,64,0.00,,OVC032,0.00,VWS V14.00,2013-04-16 14:28:00,
2013-04-16 10:30:00,62.0,50.1,30.34,SSE,154,6.0,9.0,65,0.00,,CLR,0.00,VWS V14.00,2013-04-16 14:30:00,
2013-04-16 10:33:00,62.2,49.9,30.34,South,174,4.0,8.0,64,0.00,,OVC032,0.00,VWS V14.00,2013-04-16 14:33:00,
2013-04-16 10:38:00,62.4,50.1,30.33,South,184,6.0,8.0,64,0.00,,OVC032,0.00,VWS V14.00,2013-04-16 14:38:00,
2013-04-16 10:43:00,62.3,50.4,30.33,SSE,155,3.0,8.0,65,0.00,,OVC032,0.00,VWS V14.00,2013-04-16 14:43:00,
2013-04-16 10:48:00,62.5,51.0,30.33,SSE,153,5.0,8.0,66,0.00,,OVC032,0.00,VWS V14.00,2013-04-16 14:48:00,
2013-04-16 10:53:00,63.0,51.5,30.33,South,174,4.0,9.0,66,0.00,,OVC032,0.00,VWS V14.00,2013-04-16 14:53:00,
2013-04-16 10:58:00,63.4,52.3,30.33,SSW,204,5.0,9.0,67,0.00,,OVC032,0.00,VWS V14.00,2013-04-16 14:58:00,
2013-04-16 11:00:00,63.4,51.4,30.33,South,179,6.0,9.0,65,0.00,,CLR,0.00,VWS V14.00,2013-04-16 15:00:00,
2013-04-16 11:03:00,63.4,52.3,30.33,SSE,149,4.0,8.0,67,0.00,,OVC032,0.00,VWS V14.00,2013-04-16 15:03:00,
2013-04-16 11:08:00,63.5,51.5,30.32,SSE,148,3.0,8.0,65,0.00,,OVC032,0.00,VWS V14.00,2013-04-16 15:08:00,
2013-04-16 11:13:00,63.6,51.6,30.32,SSE,162,6.0,9.0,65,0.00,,OVC032,0.00,VWS V14.00,2013-04-16 15:13:00,
2013-04-16 11:18:00,63.8,51.8,30.32,SSE,158,3.0,9.0,65,0.00,,OVC032,0.00,VWS V14.00,2013-04-16 15:18:00,
2013-04-16 11:23:00,64.6,53.0,30.32,SSW,198,3.0,9.0,66,0.00,,OVC032,0.00,VWS V14.00,2013-04-16 15:23:00,
2013-04-16 11:29:00,65.2,52.3,30.32,SSW,211,3.0,9.0,63,0.00,,OVC032,0.00,VWS V14.00,2013-04-16 15:29:00,
2013-04-16 11:30:00,65.3,51.5,30.32,WNW,286,3.0,9.0,61,0.00,,CLR,0.00,VWS V14.00,2013-04-16 15:30:00,
2013-04-16 11:34:00,65.9,53.4,30.32,SSW,197,5.0,8.0,64,0.00,,OVC032,0.00,VWS V14.00,2013-04-16 15:34:00,
2013-04-16 11:39:00,66.7,54.2,30.31,SSE,148,6.0,9.0,64,0.00,,OVC032,0.00,VWS V14.00,2013-04-16 15:39:00,
2013-04-16 11:44:00,67.3,54.3,30.31,South,170,11.0,11.0,63,0.00,,OVC032,0.00,VWS V14.00,2013-04-16 15:44:00,
2013-04-16 11:49:00,68.0,53.6,30.31,South,179,7.0,11.0,60,0.00,,OVC032,0.00,VWS V14.00,2013-04-16 15:49:00,
2013-04-16 11:54:00,68.5,54.1,30.30,SSE,158,9.0,19.0,60,0.00,,OVC032,0.00,VWS V14.00,2013-04-16 15:54:00,
2013-04-16 11:59:00,68.8,53.9,30.30,SE,125,8.0,19.0,59,0.00,,OVC032,0.00,VWS V14.00,2013-04-16 15:59:00,
2013-04-16 12:00:00,68.7,53.8,30.30,SE,127,9.0,19.0,59,0.00,,CLR,0.00,VWS V14.00,2013-04-16 16:00:00,
2013-04-16 12:04:00,68.4,54.0,30.30,SSW,207,7.0,13.0,60,0.00,,BKN070,0.00,VWS V14.00,2013-04-16 16:04:00,
2013-04-16 12:09:00,68.8,55.7,30.28,SSE,155,10.0,14.0,63,0.00,,BKN070,0.00,VWS V14.00,2013-04-16 16:09:00,
2013-04-16 12:14:00,69.2,55.2,30.28,SSE,158,9.0,14.0,61,0.00,,BKN070,0.00,VWS V14.00,2013-04-16 16:14:00,
2013-04-16 12:20:00,69.0,53.2,30.28,South,191,9.0,14.0,57,0.00,,BKN070,0.00,VWS V14.00,2013-04-16 16:20:00,
2013-04-16 12:25:00,69.3,54.4,30.27,SE,146,7.0,14.0,59,0.00,,BKN070,0.00,VWS V14.00,2013-04-16 16:25:00,
2013-04-16 12:30:00,69.9,54.5,30.27,SSE,160,7.0,10.0,58,0.00,,BKN070,0.00,VWS V14.00,2013-04-16 16:30:00,
2013-04-16 12:35:00,69.9,53.5,30.27,South,181,12.0,15.0,56,0.00,,BKN070,0.00,VWS V14.00,2013-04-16 16:35:00,
2013-04-16 12:40:00,69.7,54.8,30.27,SSE,167,6.0,15.0,59,0.00,,BKN070,0.00,VWS V14.00,2013-04-16 16:40:00,
2013-04-16 12:45:00,69.6,54.2,30.27,South,184,6.0,15.0,58,0.00,,BKN070,0.00,VWS V14.00,2013-04-16 16:45:00,
2013-04-16 12:51:00,69.8,53.9,30.27,South,190,7.0,15.0,57,0.00,,BKN070,0.00,VWS V14.00,2013-04-16 16:51:00,
2013-04-16 12:56:00,70.3,54.8,30.27,South,176,7.0,15.0,58,0.00,,BKN070,0.00,VWS V14.00,2013-04-16 16:56:00,
2013-04-16 13:00:00,70.6,54.2,30.27,South,181,12.0,15.0,56,0.00,,CLR,0.00,VWS V14.00,2013-04-16 17:00:00,
2013-04-16 13:01:00,70.8,55.3,30.27,SSE,153,12.0,12.0,58,0.00,,SCT041,0.00,VWS V14.00,2013-04-16 17:01:00,
2013-04-16 13:06:00,70.7,54.7,30.26,SSW,197,10.0,13.0,57,0.00,,SCT041,0.00,VWS V14.00,2013-04-16 17:06:00,
2013-04-16 13:11:00,70.3,54.4,30.26,SSE,155,9.0,13.0,57,0.00,,SCT041,0.00,VWS V14.00,2013-04-16 17:11:00,
2013-04-16 13:16:00,70.1,53.7,30.25,South,176,6.0,14.0,56,0.00,,SCT041,0.00,VWS V14.00,2013-04-16 17:16:00,
2013-04-16 13:21:00,70.2,54.3,30.25,SSW,210,10.0,14.0,57,0.00,,SCT041,0.00,VWS V14.00,2013-04-16 17:21:00,
2013-04-16 13:26:00,70.4,54.0,30.25,South,176,7.0,14.0,56,0.00,,SCT041,0.00,VWS V14.00,2013-04-16 17:26:00,
2013-04-16 13:30:00,71.1,54.6,30.25,South,188,6.0,14.0,56,0.00,,CLR,0.00,VWS V14.00,2013-04-16 17:30:00,
2013-04-16 13:31:00,71.3,54.8,30.25,South,179,6.0,11.0,56,0.00,,SCT041,0.00,VWS V14.00,2013-04-16 17:31:00,
2013-04-16 13:36:00,71.6,54.6,30.25,SSW,195,5.0,13.0,55,0.00,,SCT041,0.00,VWS V14.00,2013-04-16 17:36:00,
2013-04-16 13:42:00,71.2,54.2,30.25,SSE,149,6.0,13.0,55,0.00,,SCT041,0.00,VWS V14.00,2013-04-16 17:42:00,
2013-04-16 13:47:00,71.1,55.1,30.25,SSW,200,4.0,13.0,57,0.00,,SCT041,0.00,VWS V14.00,2013-04-16 17:47:00,
2013-04-16 13:52:00,70.9,54.0,30.25,South,188,4.0,13.0,55,0.00,,SCT041,0.00,VWS V14.00,2013-04-16 17:52:00,
2013-04-16 13:57:00,70.6,53.7,30.25,SSW,200,5.0,13.0,55,0.00,,SCT041,0.00,VWS V14.00,2013-04-16 17:57:00,
2013-04-16 14:00:00,70.5,54.1,30.25,SW,228,3.0,13.0,56,0.00,,CLR,0.00,VWS V14.00,2013-04-16 18:00:00,
2013-04-16 14:02:00,70.6,53.7,30.25,SSW,196,9.0,9.0,55,0.00,,OVC060,0.00,VWS V14.00,2013-04-16 18:02:00,
2013-04-16 14:07:00,70.4,53.5,30.24,WSW,242,8.0,14.0,55,0.00,,OVC060,0.00,VWS V14.00,2013-04-16 18:07:00,
2013-04-16 14:12:00,70.3,53.9,30.24,SSW,207,5.0,14.0,56,0.00,,OVC060,0.00,VWS V14.00,2013-04-16 18:12:00,
2013-04-16 14:17:00,71.0,56.0,30.23,South,191,9.0,14.0,59,0.00,,OVC060,0.00,VWS V14.00,2013-04-16 18:17:00,
2013-04-16 14:22:00,71.4,54.9,30.23,SSE,166,7.0,14.0,56,0.00,,OVC060,0.00,VWS V14.00,2013-04-16 18:22:00,
2013-04-16 14:27:00,72.0,55.5,30.22,South,190,14.0,14.0,56,0.00,,OVC060,0.00,VWS V14.00,2013-04-16 18:27:00,
2013-04-16 14:30:00,72.2,55.2,30.22,South,187,8.0,15.0,55,0.00,,CLR,0.00,VWS V14.00,2013-04-16 18:30:00,
2013-04-16 14:33:00,72.6,55.5,30.21,WSW,257,9.0,12.0,55,0.00,,OVC060,0.00,VWS V14.00,2013-04-16 18:33:00,
2013-04-16 14:38:00,73.2,56.6,30.21,South,187,8.0,15.0,56,0.00,,OVC060,0.00,VWS V14.00,2013-04-16 18:38:00,
2013-04-16 14:43:00,73.6,57.0,30.22,SSW,203,13.0,15.0,56,0.00,,OVC060,0.00,VWS V14.00,2013-04-16 18:43:00,
2013-04-16 14:48:00,73.0,55.4,30.22,SSW,195,10.0,16.0,54,0.00,,OVC060,0.00,VWS V14.00,2013-04-16 18:48:00,
2013-04-16 14:53:00,72.6,55.0,30.22,SW,219,8.0,16.0,54,0.00,,OVC060,0.00,VWS V14.00,2013-04-16 18:53:00,
2013-04-16 14:58:00,72.5,54.4,30.21,SSW,201,6.0,16.0,53,0.00,,OVC060,0.00,VWS V14.00,2013-04-16 18:58:00,
2013-04-16 15:00:00,72.5,54.9,30.21,SW,221,10.0,16.0,54,0.00,,CLR,0.00,VWS V14.00,2013-04-16 19:00:00,
2013-04-16 15:03:00,72.5,55.4,30.21,SSW,198,8.0,13.0,55,0.00,,BKN045,0.00,VWS V14.00,2013-04-16 19:03:00,
2013-04-16 15:08:00,72.6,56.0,30.20,SSW,203,5.0,13.0,56,0.00,,BKN045,0.00,VWS V14.00,2013-04-16 19:08:00,
2013-04-16 15:13:00,72.2,54.7,30.20,South,179,7.0,13.0,54,0.00,,BKN045,0.00,VWS V14.00,2013-04-16 19:13:00,
2013-04-16 15:18:00,71.7,55.7,30.20,South,177,7.0,13.0,57,0.00,,BKN045,0.00,VWS V14.00,2013-04-16 19:18:00,
2013-04-16 15:23:00,71.7,56.6,30.20,South,179,4.0,13.0,59,0.00,,BKN045,0.00,VWS V14.00,2013-04-16 19:23:00,
2013-04-16 15:28:00,72.9,56.8,30.20,SSW,194,3.0,13.0,57,0.00,,BKN045,0.00,VWS V14.00,2013-04-16 19:28:00,
2013-04-16 15:30:00,73.0,56.4,30.20,SSE,155,5.0,13.0,56,0.00,,CLR,0.00,VWS V14.00,2013-04-16 19:30:00,
2013-04-16 15:33:00,73.0,55.9,30.20,SSW,197,8.0,14.0,55,0.00,,BKN045,0.00,VWS V14.00,2013-04-16 19:33:00,
2013-04-16 15:39:00,72.8,56.2,30.20,SSW,210,6.0,14.0,56,0.00,,BKN045,0.00,VWS V14.00,2013-04-16 19:39:00,
2013-04-16 15:44:00,72.3,55.2,30.20,SW,229,7.0,14.0,55,0.00,,BKN045,0.00,VWS V14.00,2013-04-16 19:44:00,
2013-04-16 15:49:00,71.8,55.8,30.20,SSW,207,3.0,14.0,57,0.00,,BKN045,0.00,VWS V14.00,2013-04-16 19:49:00,
2013-04-16 15:54:00,71.7,55.2,30.20,SSE,155,4.0,14.0,56,0.00,,BKN045,0.00,VWS V14.00,2013-04-16 19:54:00,
2013-04-16 15:59:00,71.4,55.4,30.20,SW,226,7.0,14.0,57,0.00,,BKN045,0.00,VWS V14.00,2013-04-16 19:59:00,
2013-04-16 16:00:00,71.4,55.4,30.20,SSW,212,9.0,14.0,57,0.00,,CLR,0.00,VWS V14.00,2013-04-16 20:00:00,
2013-04-16 16:04:00,71.2,55.7,30.20,SW,214,6.0,9.0,58,0.00,,OVC080,0.00,VWS V14.00,2013-04-16 20:04:00,
2013-04-16 16:09:00,70.9,55.9,30.19,SSW,203,4.0,13.0,59,0.00,,OVC080,0.00,VWS V14.00,2013-04-16 20:09:00,
2013-04-16 16:15:00,70.7,56.2,30.20,West,259,5.0,13.0,60,0.00,,OVC080,0.00,VWS V14.00,2013-04-16 20:15:00,
2013-04-16 16:20:00,70.5,56.4,30.20,WSW,250,1.0,13.0,61,0.00,,OVC080,0.00,VWS V14.00,2013-04-16 20:20:00,
2013-04-16 16:25:00,70.3,57.1,30.20,WSW,256,4.0,13.0,63,0.00,,OVC080,0.00,VWS V14.00,2013-04-16 20:25:00,
2013-04-16 16:30:00,70.2,57.5,30.20,SE,138,2.0,6.0,64,0.00,,OVC080,0.00,VWS V14.00,2013-04-16 20:30:00,
2013-04-16 16:35:00,70.2,57.5,30.19,SSW,194,3.0,8.0,64,0.00,,OVC080,0.00,VWS V14.00,2013-04-16 20:35:00,
2013-04-16 16:40:00,70.1,57.4,30.18,South,188,2.0,8.0,64,0.00,,OVC080,0.00,VWS V14.00,2013-04-16 20:40:00,
2013-04-16 16:45:00,70.7,57.5,30.18,SSE,163,3.0,8.0,63,0.00,,OVC080,0.00,VWS V14.00,2013-04-16 20:45:00,
2013-04-16 16:50:00,71.4,57.7,30.18,South,191,7.0,9.0,62,0.00,,OVC080,0.00,VWS V14.00,2013-04-16 20:50:00,
2013-04-16 16:55:00,71.7,57.5,30.18,South,188,8.0,9.0,61,0.00,,OVC080,0.00,VWS V14.00,2013-04-16 20:55:00,
2013-04-16 17:00:00,72.2,56.6,30.17,SW,218,6.0,10.0,58,0.00,,BKN070,0.00,VWS V14.00,2013-04-16 21:00:00,
2013-04-16 17:05:00,72.3,57.2,30.17,SSW,204,3.0,10.0,59,0.00,,BKN070,0.00,VWS V14.00,2013-04-16 21:05:00,
2013-04-16 17:11:00,72.4,57.3,30.17,SSW,196,5.0,11.0,59,0.00,,BKN070,0.00,VWS V14.00,2013-04-16 21:11:00,
2013-04-16 17:16:00,72.7,58.0,30.17,SSW,208,6.0,11.0,60,0.00,,BKN070,0.00,VWS V14.00,2013-04-16 21:16:00,
2013-04-16 17:21:00,72.9,57.3,30.16,SSW,205,5.0,11.0,58,0.00,,BKN070,0.00,VWS V14.00,2013-04-16 21:21:00,
2013-04-16 17:26:00,72.8,56.7,30.16,SSW,211,8.0,16.0,57,0.00,,BKN070,0.00,VWS V14.00,2013-04-16 21:26:00,
2013-04-16 17:30:00,72.4,55.8,30.16,SSW,207,9.0,16.0,56,0.00,,CLR,0.00,VWS V14.00,2013-04-16 21:30:00,
2013-04-16 17:31:00,72.3,56.2,30.16,SSW,197,5.0,12.0,57,0.00,,BKN070,0.00,VWS V14.00,2013-04-16 21:31:00,
2013-04-16 17:36:00,72.0,56.9,30.16,SW,218,5.0,12.0,59,0.00,,BKN070,0.00,VWS V14.00,2013-04-16 21:36:00,
2013-04-16 17:42:00,72.2,56.6,30.15,South,187,3.0,12.0,58,0.00,,BKN070,0.00,VWS V14.00,2013-04-16 21:42:00,
2013-04-16 17:47:00,71.8,56.2,30.15,SSW,200,4.0,12.0,58,0.00,,BKN070,0.00,VWS V14.00,2013-04-16 21:47:00,
2013-04-16 17:52:00,71.5,56.4,30.15,South,190,6.0,12.0,59,0.00,,BKN070,0.00,VWS V14.00,2013-04-16 21:52:00,
2013-04-16 17:57:00,71.5,56.4,30.15,SW,229,8.0,12.0,59,0.00,,BKN070,0.00,VWS V14.00,2013-04-16 21:57:00,
2013-04-16 18:00:00,71.5,56.9,30.15,SSE,149,8.0,12.0,60,0.00,,CLR,0.00,VWS V14.00,2013-04-16 22:00:00,
2013-04-16 18:02:00,71.5,56.4,30.14,SSW,196,4.0,9.0,59,0.00,,SCT044,0.00,VWS V14.00,2013-04-16 22:02:00,
2013-04-16 18:07:00,71.5,56.4,30.14,South,191,7.0,14.0,59,0.00,,SCT044,0.00,VWS V14.00,2013-04-16 22:07:00,
2013-04-16 18:12:00,71.1,56.5,30.13,South,177,10.0,15.0,60,0.00,,SCT044,0.00,VWS V14.00,2013-04-16 22:12:00,
2013-04-16 18:17:00,70.5,56.9,30.13,South,179,11.0,15.0,62,0.00,,SCT044,0.00,VWS V14.00,2013-04-16 22:17:00,
2013-04-16 18:22:00,70.1,56.5,30.13,South,169,11.0,15.0,62,0.00,,SCT044,0.00,VWS V14.00,2013-04-16 22:22:00,
2013-04-16 18:27:00,69.8,56.7,30.12,SSW,198,10.0,16.0,63,0.00,,SCT044,0.00,VWS V14.00,2013-04-16 22:27:00,
2013-04-16 18:30:00,69.7,56.6,30.12,South,180,10.0,16.0,63,0.00,,CLR,0.00,VWS V14.00,2013-04-16 22:30:00,
2013-04-16 18:32:00,69.6,56.5,30.12,South,184,8.0,12.0,63,0.00,,SCT044,0.00,VWS V14.00,2013-04-16 22:32:00,
2013-04-16 18:38:00,69.3,56.6,30.12,South,181,7.0,14.0,64,0.00,,SCT044,0.00,VWS V14.00,2013-04-16 22:38:00,
2013-04-16 18:43:00,69.0,56.3,30.12,SSW,211,9.0,14.0,64,0.00,,SCT044,0.00,VWS V14.00,2013-04-16 22:43:00,
2013-04-16 18:48:00,68.8,56.1,30.12,South,173,9.0,14.0,64,0.00,,SCT044,0.00,VWS V14.00,2013-04-16 22:48:00,
2013-04-16 18:53:00,68.4,56.2,30.12,South,181,7.0,14.0,65,0.00,,SCT044,0.00,VWS V14.00,2013-04-16 22:53:00,
2013-04-16 18:58:00,68.1,56.3,30.12,South,180,9.0,14.0,66,0.00,,SCT044,0.00,VWS V14.00,2013-04-16 22:58:00,
2013-04-16 19:00:00,68.0,56.2,30.12,South,172,8.0,14.0,66,0.00,,CLR,0.00,VWS V14.00,2013-04-16 23:00:00,
2013-04-16 19:03:00,67.8,56.0,30.12,SSE,149,6.0,11.0,66,0.00,,FEW039,0.00,VWS V14.00,2013-04-16 23:03:00,
2013-04-16 19:08:00,67.7,56.0,30.13,SSW,193,6.0,11.0,66,0.00,,FEW039,0.00,VWS V14.00,2013-04-16 23:08:00,
2013-04-16 19:13:00,67.5,56.2,30.13,South,170,5.0,11.0,67,0.00,,FEW039,0.00,VWS V14.00,2013-04-16 23:13:00,
2013-04-16 19:18:00,67.3,56.0,30.12,South,174,6.0,11.0,67,0.00,,FEW039,0.00,VWS V14.00,2013-04-16 23:18:00,
2013-04-16 19:23:00,67.0,55.7,30.12,South,169,7.0,11.0,67,0.00,,FEW039,0.00,VWS V14.00,2013-04-16 23:23:00,
2013-04-16 19:28:00,66.7,55.8,30.12,SSW,200,6.0,11.0,68,0.00,,FEW039,0.00,VWS V14.00,2013-04-16 23:28:00,
2013-04-16 19:30:00,66.7,55.8,30.12,South,173,9.0,11.0,68,0.00,,CLR,0.00,VWS V14.00,2013-04-16 23:30:00,
2013-04-16 19:33:00,66.6,55.7,30.12,South,173,8.0,11.0,68,0.00,,FEW039,0.00,VWS V14.00,2013-04-16 23:33:00,
2013-04-16 19:38:00,66.2,55.7,30.12,South,170,6.0,11.0,69,0.00,,FEW039,0.00,VWS V14.00,2013-04-16 23:38:00,
2013-04-16 19:44:00,65.9,55.5,30.13,SSW,203,7.0,11.0,69,0.00,,FEW039,0.00,VWS V14.00,2013-04-16 23:44:00,
2013-04-16 19:49:00,65.8,55.4,30.12,SSE,166,7.0,11.0,69,0.00,,FEW039,0.00,VWS V14.00,2013-04-16 23:49:00,
2013-04-16 19:54:00,65.7,55.3,30.12,South,191,7.0,11.0,69,0.00,,FEW039,0.00,VWS V14.00,2013-04-16 23:54:00,
2013-04-16 19:59:00,65.5,55.1,30.12,South,177,4.0,11.0,69,0.00,,FEW039,0.00,VWS V14.00,2013-04-16 23:59:00,
2013-04-16 20:00:00,65.4,55.4,30.12,SSE,158,5.0,11.0,70,0.00,,CLR,0.00,VWS V14.00,2013-04-17 00:00:00,
2013-04-16 20:04:00,65.1,55.1,30.13,SSW,196,4.0,9.0,70,0.00,,CLR,0.00,VWS V14.00,2013-04-17 00:04:00,
2013-04-16 20:09:00,65.0,55.0,30.13,South,190,5.0,9.0,70,0.00,,CLR,0.00,VWS V14.00,2013-04-17 00:09:00,
2013-04-16 20:14:00,64.8,54.8,30.13,SSW,200,5.0,9.0,70,0.00,,CLR,0.00,VWS V14.00,2013-04-17 00:14:00,
2013-04-16 20:19:00,64.7,54.7,30.14,SW,215,7.0,9.0,70,0.00,,CLR,0.00,VWS V14.00,2013-04-17 00:19:00,
2013-04-16 20:24:00,64.7,54.7,30.14,SSW,203,7.0,11.0,70,0.00,,CLR,0.00,VWS V14.00,2013-04-17 00:24:00,
2013-04-16 20:29:00,64.5,54.9,30.14,SE,144,6.0,11.0,71,0.00,,CLR,0.00,VWS V14.00,2013-04-17 00:29:00,
2013-04-16 20:30:00,64.5,54.9,30.14,South,176,4.0,11.0,71,0.00,,CLR,0.00,VWS V14.00,2013-04-17 00:30:00,
2013-04-16 20:34:00,64.3,54.7,30.14,South,191,7.0,7.0,71,0.00,,CLR,0.00,VWS V14.00,2013-04-17 00:34:00,
2013-04-16 20:39:00,64.1,54.5,30.14,SSE,159,6.0,7.0,71,0.00,,CLR,0.00,VWS V14.00,2013-04-17 00:39:00,
2013-04-16 20:44:00,64.0,54.4,30.14,South,190,4.0,8.0,71,0.00,,CLR,0.00,VWS V14.00,2013-04-17 00:44:00,
2013-04-16 20:49:00,63.8,54.6,30.15,South,182,4.0,8.0,72,0.00,,CLR,0.00,VWS V14.00,2013-04-17 00:49:00,
2013-04-16 20:55:00,63.6,54.4,30.15,SSW,202,4.0,8.0,72,0.00,,CLR,0.00,VWS V14.00,2013-04-17 00:55:00,
2013-04-16 21:00:00,63.5,54.7,30.15,SSW,211,3.0,4.0,73,0.00,,CLR,0.00,VWS V14.00,2013-04-17 01:00:00,
2013-04-16 21:05:00,63.3,54.5,30.14,South,177,5.0,9.0,73,0.00,,CLR,0.00,VWS V14.00,2013-04-17 01:05:00,
2013-04-16 21:10:00,63.2,54.4,30.14,South,181,5.0,9.0,73,0.00,,CLR,0.00,VWS V14.00,2013-04-17 01:10:00,
2013-04-16 21:15:00,63.0,54.6,30.14,South,172,4.0,9.0,74,0.00,,CLR,0.00,VWS V14.00,2013-04-17 01:15:00,
2013-04-16 21:20:00,62.9,54.5,30.15,South,184,3.0,9.0,74,0.00,,CLR,0.00,VWS V14.00,2013-04-17 01:20:00,
2013-04-16 21:25:00,62.7,54.3,30.15,South,177,4.0,9.0,74,0.00,,CLR,0.00,VWS V14.00,2013-04-17 01:25:00,
2013-04-16 21:30:00,62.5,54.1,30.15,SSW,196,1.0,2.0,74,0.00,,CLR,0.00,VWS V14.00,2013-04-17 01:30:00,
2013-04-16 21:35:00,62.3,54.3,30.15,South,184,1.0,3.0,75,0.00,,CLR,0.00,VWS V14.00,2013-04-17 01:35:00,
2013-04-16 21:41:00,61.9,53.9,30.15,SSW,197,1.0,3.0,75,0.00,,CLR,0.00,VWS V14.00,2013-04-17 01:41:00,
2013-04-16 21:46:00,61.8,54.2,30.16,SSW,210,1.0,3.0,76,0.00,,CLR,0.00,VWS V14.00,2013-04-17 01:46:00,
2013-04-16 21:51:00,61.5,53.9,30.16,WSW,255,0.0,3.0,76,0.00,,CLR,0.00,VWS V14.00,2013-04-17 01:51:00,
2013-04-16 21:57:00,61.1,53.8,30.16,SSW,199,1.0,3.0,77,0.00,,CLR,0.00,VWS V14.00,2013-04-17 01:57:00,
2013-04-16 22:00:00,61.0,53.8,30.16,SW,236,0.0,3.0,77,0.00,,CLR,0.00,VWS V14.00,2013-04-17 02:00:00,
2013-04-16 22:02:00,60.9,53.7,30.16,WSW,237,0.0,1.0,77,0.00,,CLR,0.00,VWS V14.00,2013-04-17 02:02:00,
2013-04-16 22:07:00,60.6,53.7,30.16,SSE,159,0.0,1.0,78,0.00,,CLR,0.00,VWS V14.00,2013-04-17 02:07:00,
2013-04-16 22:12:00,60.4,53.5,30.16,SSW,200,2.0,2.0,78,0.00,,CLR,0.00,VWS V14.00,2013-04-17 02:12:00,
2013-04-16 22:17:00,60.3,53.4,30.16,SSW,202,3.0,3.0,78,0.00,,CLR,0.00,VWS V14.00,2013-04-17 02:17:00,
2013-04-16 22:22:00,60.3,53.8,30.16,SSW,195,3.0,3.0,79,0.00,,CLR,0.00,VWS V14.00,2013-04-17 02:22:00,
2013-04-16 22:27:00,60.3,53.8,30.15,South,190,3.0,4.0,79,0.00,,CLR,0.00,VWS V14.00,2013-04-17 02:27:00,
2013-04-16 22:30:00,60.4,53.9,30.14,South,177,3.0,5.0,79,0.00,,CLR,0.00,VWS V14.00,2013-04-17 02:30:00,
2013-04-16 22:32:00,60.4,53.9,30.14,SSW,204,3.0,5.0,79,0.00,,CLR,0.00,VWS V14.00,2013-04-17 02:32:00,
2013-04-16 22:37:00,60.5,54.0,30.15,SSW,198,3.0,5.0,79,0.00,,CLR,0.00,VWS V14.00,2013-04-17 02:37:00,
2013-04-16 22:42:00,60.4,53.5,30.14,SSW,195,2.0,5.0,78,0.00,,CLR,0.00,VWS V14.00,2013-04-17 02:42:00,
2013-04-16 22:47:00,60.3,53.8,30.14,SW,215,3.0,5.0,79,0.00,,CLR,0.00,VWS V14.00,2013-04-17 02:47:00,
2013-04-16 22:52:00,60.3,53.8,30.15,SSE,162,4.0,5.0,79,0.00,,CLR,0.00,VWS V14.00,2013-04-17 02:52:00,
2013-04-16 22:57:00,60.4,53.9,30.14,South,188,4.0,5.0,79,0.00,,CLR,0.00,VWS V14.00,2013-04-17 02:57:00,
2013-04-16 23:00:00,60.4,53.9,30.14,SSW,193,3.0,5.0,79,0.00,,CLR,0.00,VWS V14.00,2013-04-17 03:00:00,
2013-04-16 23:02:00,60.5,54.0,30.14,SW,214,3.0,5.0,79,0.00,,CLR,0.00,VWS V14.00,2013-04-17 03:02:00,
2013-04-16 23:08:00,60.6,54.1,30.14,SSW,207,2.0,5.0,79,0.00,,CLR,0.00,VWS V14.00,2013-04-17 03:08:00,
2013-04-16 23:13:00,60.7,54.2,30.15,SW,217,2.0,5.0,79,0.00,,CLR,0.00,VWS V14.00,2013-04-17 03:13:00,
2013-04-16 23:18:00,60.7,54.2,30.14,SSW,210,3.0,5.0,79,0.00,,CLR,0.00,VWS V14.00,2013-04-17 03:18:00,
2013-04-16 23:23:00,60.7,54.2,30.14,SSW,198,5.0,6.0,79,0.00,,CLR,0.00,VWS V14.00,2013-04-17 03:23:00,
2013-04-16 23:28:00,60.8,54.3,30.15,SSE,165,4.0,8.0,79,0.00,,CLR,0.00,VWS V14.00,2013-04-17 03:28:00,
2013-04-16 23:30:00,60.8,54.3,30.15,SSE,166,4.0,8.0,79,0.00,,CLR,0.00,VWS V14.00,2013-04-17 03:30:00,
2013-04-16 23:33:00,60.8,54.3,30.15,SSW,201,4.0,6.0,79,0.00,,CLR,0.00,VWS V14.00,2013-04-17 03:33:00,
2013-04-16 23:38:00,60.7,54.2,30.15,South,186,4.0,6.0,79,0.00,,CLR,0.00,VWS V14.00,2013-04-17 03:38:00,
2013-04-16 23:43:00,60.6,54.4,30.15,SSW,205,4.0,6.0,80,0.00,,CLR,0.00,VWS V14.00,2013-04-17 03:43:00,
2013-04-16 23:49:00,60.5,54.3,30.15,South,186,4.0,6.0,80,0.00,,CLR,0.00,VWS V14.00,2013-04-17 03:49:00,
2013-04-16 23:54:00,60.5,54.3,30.15,SSW,203,4.0,6.0,80,0.00,,CLR,0.00,VWS V14.00,2013-04-17 03:54:00,
2013-04-16 23:59:00,60.4,54.2,30.15,SSW,201,2.0,6.0,80,0.00,,CLR,0.00,VWS V14.00,2013-04-17 03:59:00,